UPS1512 EGCC-KJFK

Flight info

Callsign UPS1512
Flight time 2h 14m
Altitude 30000
Route EKLAD UY53 WAL L10 PENIL M144 BAGSO DCT DOGAL/M082F320 DCT 55N020W 55N030W 55N040W 54N050W DCT NEEKO/N0482F340 N622E TAFFY DCT ENE PARCH4
Aircraft MD11/H-SDE1E2E3FGHIJ2J3J4J5M1RWXY/LB1D1

Departure

Time 2026-05-04 17:56
Airport Manchester Airport (EGCC)

Arrival

Time 2026-05-04 20:11
Airport John F. Kennedy International Airport (KJFK)
Time Latitude Longitude Altitude Speed Heading
2026-05-04 17:08 53.36023 -2.27992 258 ft 0 kts 257°
2026-05-04 17:11 53.36529 -2.28860 263 ft 0 kts 225°
2026-05-04 17:44 53.36535 -2.28850 263 ft 3 kts 225°
2026-05-04 17:44 53.36550 -2.28825 263 ft 3 kts 225°
2026-05-04 17:44 53.36558 -2.28811 263 ft 2 kts 224°
2026-05-04 17:45 53.36570 -2.28793 264 ft 3 kts 199°
2026-05-04 17:45 53.36579 -2.28786 265 ft 3 kts 154°
2026-05-04 17:45 53.36588 -2.28796 268 ft 3 kts 115°
2026-05-04 17:45 53.36596 -2.28827 264 ft 3 kts 111°
2026-05-04 17:46 53.36599 -2.28841 262 ft 0 kts 112°
2026-05-04 17:49 53.36598 -2.28836 263 ft 3 kts 112°
2026-05-04 17:49 53.36579 -2.28758 265 ft 11 kts 112°
2026-05-04 17:49 53.36530 -2.28633 260 ft 14 kts 132°
2026-05-04 17:50 53.36455 -2.28511 260 ft 12 kts 131°
2026-05-04 17:50 53.36406 -2.28418 260 ft 10 kts 133°
2026-05-04 17:50 53.36360 -2.28339 259 ft 9 kts 135°
2026-05-04 17:50 53.36312 -2.28262 259 ft 12 kts 136°
2026-05-04 17:51 53.36238 -2.28140 258 ft 18 kts 133°
2026-05-04 17:51 53.36153 -2.27993 257 ft 17 kts 134°
2026-05-04 17:51 53.36073 -2.27861 256 ft 16 kts 136°
2026-05-04 17:51 53.36002 -2.27732 255 ft 16 kts 133°
2026-05-04 17:52 53.35929 -2.27700 255 ft 12 kts 197°
2026-05-04 17:52 53.35839 -2.27725 256 ft 11 kts 178°
2026-05-04 17:52 53.35776 -2.27677 255 ft 9 kts 152°
2026-05-04 17:52 53.35720 -2.27659 255 ft 5 kts 176°
2026-05-04 17:53 53.35688 -2.27620 254 ft 9 kts 142°
2026-05-04 17:53 53.35641 -2.27550 253 ft 9 kts 139°
2026-05-04 17:53 53.35594 -2.27486 252 ft 6 kts 141°
2026-05-04 17:53 53.35592 -2.27484 252 ft 0 kts 141°
2026-05-04 17:54 53.35589 -2.27480 252 ft 4 kts 141°
2026-05-04 17:54 53.35537 -2.27409 252 ft 15 kts 141°
2026-05-04 17:54 53.35445 -2.27285 252 ft 18 kts 141°
2026-05-04 17:54 53.35332 -2.27190 256 ft 17 kts 179°
2026-05-04 17:55 53.35247 -2.27217 264 ft 8 kts 191°
2026-05-04 17:55 53.35190 -2.27236 271 ft 10 kts 191°
2026-05-04 17:55 53.35109 -2.27263 278 ft 14 kts 191°
2026-05-04 17:55 53.34993 -2.27361 277 ft 26 kts 226°
2026-05-04 17:56 53.34665 -2.28034 269 ft 128 kts 231°
2026-05-04 17:56 53.33935 -2.29533 377 ft 190 kts 231°
2026-05-04 17:56 53.33071 -2.31294 1171 ft 203 kts 234°
2026-05-04 17:56 53.32190 -2.33353 1923 ft 236 kts 244°
2026-05-04 17:57 53.31755 -2.36259 2201 ft 277 kts 276°
2026-05-04 17:57 53.32225 -2.39025 3712 ft 217 kts 289°
2026-05-04 17:57 53.32423 -2.41460 4482 ft 228 kts 271°
2026-05-04 17:57 53.32482 -2.44306 5113 ft 254 kts 269°
2026-05-04 17:58 53.32119 -2.47139 6388 ft 235 kts 249°
2026-05-04 17:58 53.31631 -2.49657 7454 ft 225 kts 255°
2026-05-04 17:58 53.31133 -2.52411 7805 ft 263 kts 252°
2026-05-04 17:58 53.30579 -2.55113 9495 ft 237 kts 251°
2026-05-04 17:59 53.30068 -2.57678 10711 ft 230 kts 253°
2026-05-04 17:59 53.29570 -2.60250 11659 ft 234 kts 253°
2026-05-04 17:59 53.28580 -2.65349 13758 ft 230 kts 252°
2026-05-04 18:00 53.28094 -2.67901 14614 ft 231 kts 252°
2026-05-04 18:00 53.27628 -2.70432 15426 ft 233 kts 253°
2026-05-04 18:00 53.27137 -2.73122 15904 ft 250 kts 253°
2026-05-04 18:00 53.26636 -2.75948 16494 ft 256 kts 253°
2026-05-04 18:01 53.26132 -2.78790 17345 ft 253 kts 253°
2026-05-04 18:01 53.25683 -2.81619 18188 ft 252 kts 263°
2026-05-04 18:01 53.25829 -2.84564 18712 ft 261 kts 288°
2026-05-04 18:02 53.27888 -2.89793 19744 ft 273 kts 312°
2026-05-04 18:02 53.29127 -2.92121 20720 ft 262 kts 313°
2026-05-04 18:02 53.30324 -2.94390 21410 ft 263 kts 312°
2026-05-04 18:02 53.31559 -2.96795 21690 ft 279 kts 312°
2026-05-04 18:03 53.32789 -2.99326 22086 ft 290 kts 310°
2026-05-04 18:03 53.34085 -3.02069 22502 ft 303 kts 309°
2026-05-04 18:03 53.35394 -3.04858 23031 ft 313 kts 310°
2026-05-04 18:03 53.36670 -3.07631 24314 ft 284 kts 309°
2026-05-04 18:04 53.37862 -3.10322 24826 ft 291 kts 308°
2026-05-04 18:04 53.39058 -3.13061 25341 ft 293 kts 308°
2026-05-04 18:04 53.41443 -3.18680 26313 ft 298 kts 308°
2026-05-04 18:05 53.42648 -3.21528 26784 ft 301 kts 308°
2026-05-04 18:05 53.43863 -3.24397 27279 ft 303 kts 308°
2026-05-04 18:05 53.45093 -3.27296 27757 ft 306 kts 309°
2026-05-04 18:05 53.46335 -3.30223 28220 ft 309 kts 309°
2026-05-04 18:06 53.48846 -3.36148 29092 ft 313 kts 309°
2026-05-04 18:06 53.50096 -3.39100 29517 ft 315 kts 309°
2026-05-04 18:06 53.51377 -3.42127 29938 ft 318 kts 309°
2026-05-04 18:07 53.52674 -3.45195 30046 ft 323 kts 309°
2026-05-04 18:07 53.53967 -3.48260 30064 ft 322 kts 309°
2026-05-04 18:07 53.56556 -3.54410 30067 ft 322 kts 309°
2026-05-04 18:08 53.59199 -3.60689 30074 ft 342 kts 309°
2026-05-04 18:08 53.60603 -3.64029 30067 ft 357 kts 308°
2026-05-04 18:08 53.61745 -3.67866 30069 ft 377 kts 289°
2026-05-04 18:09 53.62412 -3.77020 30075 ft 411 kts 274°
2026-05-04 18:09 53.62596 -3.86923 30073 ft 440 kts 274°
2026-05-04 18:10 53.62734 -3.92162 30075 ft 455 kts 275°
2026-05-04 18:10 53.62907 -3.97587 30073 ft 470 kts 275°
2026-05-04 18:10 53.63108 -4.03182 30073 ft 486 kts 275°
2026-05-04 18:10 53.63327 -4.08920 30070 ft 495 kts 275°
2026-05-04 18:11 53.63770 -4.20454 30063 ft 496 kts 276°
2026-05-04 18:11 53.64210 -4.32058 30067 ft 495 kts 275°
2026-05-04 18:12 53.64634 -4.43649 30072 ft 495 kts 275°
2026-05-04 18:12 53.65045 -4.55251 30073 ft 495 kts 275°
2026-05-04 18:13 53.65449 -4.66806 30068 ft 491 kts 275°
2026-05-04 18:14 53.66030 -4.83967 30078 ft 487 kts 275°
2026-05-04 18:14 53.66395 -4.95380 30078 ft 487 kts 275°
2026-05-04 18:15 53.67105 -5.18129 30078 ft 487 kts 275°
2026-05-04 18:16 53.67432 -5.29518 30077 ft 485 kts 274°
2026-05-04 18:16 53.67753 -5.40886 30078 ft 484 kts 274°
2026-05-04 18:17 53.68575 -5.57848 30078 ft 483 kts 278°
2026-05-04 18:18 53.69852 -5.74710 30082 ft 483 kts 279°
2026-05-04 18:18 53.70534 -5.83952 30080 ft 483 kts 279°
2026-05-04 18:19 53.70959 -5.89868 30082 ft 483 kts 278°
2026-05-04 18:20 53.71625 -5.99306 30080 ft 483 kts 278°
2026-05-04 18:20 53.72408 -6.10575 30078 ft 483 kts 278°
2026-05-04 18:21 53.73181 -6.21843 30077 ft 483 kts 278°
2026-05-04 18:21 53.73937 -6.33010 30074 ft 482 kts 278°
2026-05-04 18:22 53.75381 -6.54714 30071 ft 481 kts 278°
2026-05-04 18:22 53.80812 -7.44368 30083 ft 473 kts 277°
2026-05-04 18:23 53.85568 -8.32901 30095 ft 471 kts 275°
2026-05-04 18:23 53.89590 -9.20883 30110 ft 468 kts 275°
2026-05-04 18:24 53.92914 -10.08707 30127 ft 465 kts 274°
2026-05-04 18:24 53.95710 -10.96258 30141 ft 463 kts 273°
2026-05-04 18:25 53.97754 -11.83387 30157 ft 458 kts 272°
2026-05-04 18:25 53.99151 -12.69694 30160 ft 457 kts 271°
2026-05-04 18:26 54.00013 -13.55827 30173 ft 453 kts 270°
2026-05-04 18:26 54.00145 -14.41641 30191 ft 455 kts 270°
2026-05-04 18:27 54.02952 -15.27129 30206 ft 456 kts 286°
2026-05-04 18:27 54.14269 -16.10840 30207 ft 456 kts 283°
2026-05-04 18:28 54.24623 -16.95634 30228 ft 456 kts 282°
2026-05-04 18:28 54.34457 -17.80750 30247 ft 456 kts 282°
2026-05-04 18:29 54.43646 -18.66569 30276 ft 458 kts 280°
2026-05-04 18:29 54.52183 -19.52848 30290 ft 457 kts 279°
2026-05-04 18:30 54.63861 -20.81986 30297 ft 452 kts 279°
2026-05-04 18:31 54.70909 -21.68165 30310 ft 453 kts 278°
2026-05-04 18:31 54.77187 -22.54078 30316 ft 452 kts 277°
2026-05-04 18:32 54.82994 -23.40675 30334 ft 452 kts 276°
2026-05-04 18:32 54.88070 -24.27180 30333 ft 450 kts 275°
2026-05-04 18:33 54.92507 -25.13720 30340 ft 449 kts 274°
2026-05-04 18:33 54.97263 -26.19048 30343 ft 446 kts 273°
2026-05-04 18:34 55.01012 -27.28707 30341 ft 445 kts 271°
2026-05-04 18:34 55.02250 -27.71722 32331 ft 442 kts 271°
2026-05-04 18:34 55.03249 -28.14582 32375 ft 443 kts 271°
2026-05-04 18:35 55.05022 -29.00674 32369 ft 445 kts 270°
2026-05-04 18:35 55.06065 -29.87020 32369 ft 445 kts 270°
2026-05-04 18:36 55.06179 -29.98949 32367 ft 445 kts 270°
2026-05-04 18:36 55.06262 -30.08844 32374 ft 445 kts 270°
2026-05-04 18:37 55.06529 -30.95332 32380 ft 448 kts 270°
2026-05-04 18:37 55.06283 -31.82413 32365 ft 452 kts 271°
2026-05-04 18:38 55.05320 -32.71751 32372 ft 462 kts 272°
2026-05-04 18:38 55.03751 -33.61899 32352 ft 464 kts 271°
2026-05-04 18:39 55.01465 -34.51010 32363 ft 462 kts 270°
2026-05-04 18:39 54.96486 -35.91801 32344 ft 459 kts 268°
2026-05-04 18:40 54.92568 -36.79683 32314 ft 451 kts 269°
2026-05-04 18:40 54.88194 -37.65903 32290 ft 443 kts 271°
2026-05-04 18:41 54.83191 -38.50616 32278 ft 441 kts 270°
2026-05-04 18:41 54.77748 -39.34651 32261 ft 439 kts 267°
2026-05-04 18:42 54.71581 -40.18157 32207 ft 441 kts 265°
2026-05-04 18:42 54.64741 -41.02590 32168 ft 445 kts 263°
2026-05-04 18:43 54.57335 -41.88031 32117 ft 451 kts 262°
2026-05-04 18:43 54.49205 -42.73283 32077 ft 451 kts 260°
2026-05-04 18:44 54.40558 -43.58420 32021 ft 454 kts 258°
2026-05-04 18:44 54.31160 -44.43800 31975 ft 456 kts 257°
2026-05-04 18:45 54.21058 -45.29088 31902 ft 457 kts 255°
2026-05-04 18:45 54.10470 -46.14440 31848 ft 465 kts 253°
2026-05-04 18:46 53.98924 -47.00773 31763 ft 469 kts 251°
2026-05-04 18:46 53.86592 -47.88251 31713 ft 478 kts 250°
2026-05-04 18:47 53.73492 -48.76187 31679 ft 485 kts 249°
2026-05-04 18:47 53.59457 -49.65157 31627 ft 498 kts 247°
2026-05-04 18:48 53.44457 -50.55461 31571 ft 504 kts 245°
2026-05-04 18:48 53.28500 -51.46777 31535 ft 515 kts 243°
2026-05-04 18:49 53.11698 -52.37725 31457 ft 516 kts 242°
2026-05-04 18:49 52.94226 -53.28210 31439 ft 513 kts 242°
2026-05-04 18:50 52.76132 -54.17672 31333 ft 514 kts 242°
2026-05-04 18:50 52.57290 -55.06540 31340 ft 510 kts 243°
2026-05-04 18:50 52.47812 -55.50241 31239 ft 507 kts 244°
2026-05-04 18:51 52.36255 -55.91438 31257 ft 494 kts 232°
2026-05-04 18:51 52.08639 -56.68707 31229 ft 490 kts 236°
2026-05-04 18:52 51.80918 -57.44824 31210 ft 492 kts 236°
2026-05-04 18:52 51.52617 -58.20271 31206 ft 492 kts 236°
2026-05-04 18:53 51.23950 -58.94655 31186 ft 488 kts 236°
2026-05-04 18:53 50.95061 -59.67396 33248 ft 480 kts 236°
2026-05-04 18:54 50.65879 -60.38821 33218 ft 482 kts 235°
2026-05-04 18:54 50.36659 -61.08529 33238 ft 479 kts 236°
2026-05-04 18:55 50.07076 -61.77103 33226 ft 472 kts 235°
2026-05-04 18:55 49.62439 -62.77432 33348 ft 470 kts 235°
2026-05-04 18:56 49.32549 -63.42685 33406 ft 460 kts 236°
2026-05-04 18:56 49.02764 -64.06024 33444 ft 458 kts 235°
2026-05-04 18:57 48.72948 -64.67876 33459 ft 455 kts 234°
2026-05-04 18:57 48.42542 -65.29735 33517 ft 455 kts 233°
2026-05-04 18:58 48.11996 -65.90326 33572 ft 454 kts 233°
2026-05-04 18:58 47.84067 -66.44669 33609 ft 454 kts 232°
2026-05-04 18:59 47.82142 -66.48375 33607 ft 453 kts 232°
2026-05-04 18:59 47.80194 -66.52083 33605 ft 454 kts 232°
2026-05-04 19:00 47.78246 -66.55779 33617 ft 454 kts 232°
2026-05-04 19:00 47.76299 -66.59479 33619 ft 454 kts 232°
2026-05-04 19:01 47.74370 -66.63153 33615 ft 455 kts 233°
2026-05-04 19:01 47.72424 -66.66864 33615 ft 455 kts 233°
2026-05-04 19:02 47.70475 -66.70584 33629 ft 457 kts 233°
2026-05-04 19:02 47.68519 -66.74315 33624 ft 456 kts 233°
2026-05-04 19:03 47.66566 -66.78035 33625 ft 457 kts 233°
2026-05-04 19:03 47.64625 -66.81729 33624 ft 456 kts 233°
2026-05-04 19:04 47.62671 -66.85440 33623 ft 457 kts 233°
2026-05-04 19:04 47.60715 -66.89151 33623 ft 456 kts 233°
2026-05-04 19:05 47.59187 -66.92046 33622 ft 457 kts 233°
2026-05-04 19:05 47.57230 -66.95747 33627 ft 456 kts 233°
2026-05-04 19:06 47.55604 -66.98821 33631 ft 456 kts 233°
2026-05-04 19:06 47.53646 -67.02518 33635 ft 456 kts 233°
2026-05-04 19:07 47.51687 -67.06212 33640 ft 456 kts 233°
2026-05-04 19:07 47.49728 -67.09900 33641 ft 456 kts 233°
2026-05-04 19:08 47.47765 -67.13590 33634 ft 456 kts 233°
2026-05-04 19:08 47.45817 -67.17249 33642 ft 456 kts 233°
2026-05-04 19:09 47.43852 -67.20932 33642 ft 456 kts 233°
2026-05-04 19:09 47.41848 -67.24550 33641 ft 456 kts 229°
2026-05-04 19:10 47.39900 -67.27230 33644 ft 457 kts 220°
2026-05-04 19:10 47.36849 -67.30310 33641 ft 460 kts 213°
2026-05-04 19:11 47.34086 -67.32692 33652 ft 460 kts 212°
2026-05-04 19:11 47.31298 -67.35025 33643 ft 460 kts 212°
2026-05-04 19:12 47.27147 -67.38584 33649 ft 460 kts 213°
2026-05-04 19:13 47.24404 -67.41011 33652 ft 460 kts 213°
2026-05-04 19:13 47.21677 -67.43467 33660 ft 460 kts 214°
2026-05-04 19:14 47.18956 -67.45938 33657 ft 460 kts 214°
2026-05-04 19:14 47.16239 -67.48415 33663 ft 460 kts 214°
2026-05-04 19:15 47.13537 -67.50877 33662 ft 460 kts 214°
2026-05-04 19:15 47.10818 -67.53351 33661 ft 460 kts 214°
2026-05-04 19:16 47.08095 -67.55824 33669 ft 460 kts 214°
2026-05-04 19:16 47.05367 -67.58297 33655 ft 460 kts 214°
2026-05-04 19:17 47.02641 -67.60764 33676 ft 461 kts 214°
2026-05-04 19:17 46.99922 -67.63221 33682 ft 461 kts 214°
2026-05-04 19:18 46.97190 -67.65686 33687 ft 461 kts 214°
2026-05-04 19:18 46.94459 -67.68148 33686 ft 461 kts 214°
2026-05-04 19:19 46.91723 -67.70612 33695 ft 461 kts 214°
2026-05-04 19:19 46.88987 -67.73072 33695 ft 461 kts 214°
2026-05-04 19:20 46.86250 -67.75529 33684 ft 461 kts 214°
2026-05-04 19:20 46.83509 -67.77987 33694 ft 462 kts 214°
2026-05-04 19:21 46.80788 -67.80425 33702 ft 462 kts 214°
2026-05-04 19:21 46.78048 -67.82878 33700 ft 462 kts 214°
2026-05-04 19:22 46.75303 -67.85331 33720 ft 462 kts 214°
2026-05-04 19:22 46.72562 -67.87779 33727 ft 462 kts 214°
2026-05-04 19:23 46.69817 -67.90217 33732 ft 462 kts 214°
2026-05-04 19:23 46.67063 -67.92650 33732 ft 462 kts 214°
2026-05-04 19:24 46.64315 -67.95076 33726 ft 462 kts 214°
2026-05-04 19:24 46.61587 -67.97488 33728 ft 462 kts 214°
2026-05-04 19:25 46.58839 -67.99920 33733 ft 462 kts 214°
2026-05-04 19:25 46.56093 -68.02351 33739 ft 462 kts 214°
2026-05-04 19:26 46.53353 -68.04777 33741 ft 462 kts 214°
2026-05-04 19:26 46.19351 -68.34624 33779 ft 458 kts 215°
2026-05-04 19:27 45.76123 -68.71900 33748 ft 455 kts 216°
2026-05-04 19:27 45.32241 -69.09110 33763 ft 459 kts 216°
2026-05-04 19:28 44.88033 -69.45866 33769 ft 460 kts 216°
2026-05-04 19:28 44.43580 -69.82148 33801 ft 463 kts 216°
2026-05-04 19:29 43.99073 -70.17906 33768 ft 465 kts 215°
2026-05-04 19:29 43.54040 -70.53386 33782 ft 466 kts 215°
2026-05-04 19:30 43.42858 -70.61531 33789 ft 473 kts 206°
2026-05-04 19:30 43.03445 -70.80435 33776 ft 473 kts 205°
2026-05-04 19:31 42.53789 -71.04502 33809 ft 472 kts 205°
2026-05-04 19:31 42.04379 -71.28070 33923 ft 470 kts 204°
2026-05-04 19:32 41.79176 -71.39907 33946 ft 469 kts 204°
2026-05-04 19:32 41.76099 -71.41350 33947 ft 469 kts 204°
2026-05-04 19:33 41.73030 -71.42828 33945 ft 467 kts 207°
2026-05-04 19:33 41.70175 -71.44767 33935 ft 460 kts 217°
2026-05-04 19:34 41.67609 -71.47285 33948 ft 455 kts 224°
2026-05-04 19:34 41.65234 -71.50069 33938 ft 454 kts 226°
2026-05-04 19:35 41.62940 -71.52879 33707 ft 451 kts 227°
2026-05-04 19:35 41.61778 -71.54296 33512 ft 453 kts 226°
2026-05-04 19:35 41.60606 -71.55707 33330 ft 454 kts 226°
2026-05-04 19:35 41.59424 -71.57111 33122 ft 456 kts 226°
2026-05-04 19:36 41.58230 -71.58509 32912 ft 457 kts 226°
2026-05-04 19:36 41.57027 -71.59899 32709 ft 458 kts 225°
2026-05-04 19:36 41.55819 -71.61281 32510 ft 459 kts 225°
2026-05-04 19:36 41.54599 -71.62663 32307 ft 460 kts 225°
2026-05-04 19:37 41.53375 -71.64040 32117 ft 460 kts 225°
2026-05-04 19:37 41.52145 -71.65418 31904 ft 461 kts 225°
2026-05-04 19:37 41.50914 -71.66792 31710 ft 462 kts 225°
2026-05-04 19:37 41.49679 -71.68167 31525 ft 463 kts 225°
2026-05-04 19:38 41.48440 -71.69546 31314 ft 463 kts 225°
2026-05-04 19:38 41.47217 -71.70905 31157 ft 464 kts 225°
2026-05-04 19:38 41.45977 -71.72282 30961 ft 464 kts 225°
2026-05-04 19:38 41.44733 -71.73663 30672 ft 466 kts 225°
2026-05-04 19:39 41.43487 -71.75046 30368 ft 466 kts 225°
2026-05-04 19:39 41.42241 -71.76429 30065 ft 466 kts 225°
2026-05-04 19:39 41.40992 -71.77815 29707 ft 467 kts 225°
2026-05-04 19:39 41.39741 -71.79204 29352 ft 468 kts 225°
2026-05-04 19:40 41.38489 -71.80594 28985 ft 469 kts 225°
2026-05-04 19:40 41.37234 -71.81986 28633 ft 470 kts 225°
2026-05-04 19:40 41.35986 -71.83371 28291 ft 471 kts 225°
2026-05-04 19:40 41.34729 -71.84764 27933 ft 472 kts 225°
2026-05-04 19:41 41.33465 -71.86164 27609 ft 471 kts 225°
2026-05-04 19:41 41.32235 -71.87523 27277 ft 459 kts 225°
2026-05-04 19:41 41.31020 -71.88860 26947 ft 447 kts 225°
2026-05-04 19:41 41.29835 -71.90161 26621 ft 435 kts 225°
2026-05-04 19:42 41.28680 -71.91426 26283 ft 425 kts 225°
2026-05-04 19:42 41.27550 -71.92661 25958 ft 416 kts 225°
2026-05-04 19:42 41.26442 -71.93872 25636 ft 407 kts 225°
2026-05-04 19:42 41.25362 -71.95055 25332 ft 399 kts 225°
2026-05-04 19:43 41.24298 -71.96220 25015 ft 391 kts 225°
2026-05-04 19:43 41.23272 -71.97347 24708 ft 385 kts 225°
2026-05-04 19:43 41.22249 -71.98472 24419 ft 379 kts 225°
2026-05-04 19:43 41.21242 -71.99581 24118 ft 373 kts 225°
2026-05-04 19:44 41.20251 -72.00672 23830 ft 368 kts 225°
2026-05-04 19:44 41.19273 -72.01750 23558 ft 363 kts 225°
2026-05-04 19:44 41.18306 -72.02816 23210 ft 358 kts 225°
2026-05-04 19:44 41.17351 -72.03869 22859 ft 354 kts 225°
2026-05-04 19:45 41.16407 -72.04909 22523 ft 350 kts 225°
2026-05-04 19:45 41.15475 -72.05936 22178 ft 347 kts 225°
2026-05-04 19:45 41.14551 -72.06953 21846 ft 343 kts 225°
2026-05-04 19:45 41.13636 -72.07960 21515 ft 340 kts 225°
2026-05-04 19:46 41.12741 -72.08944 21192 ft 336 kts 225°
2026-05-04 19:46 41.11844 -72.09930 20881 ft 334 kts 225°
2026-05-04 19:46 41.10963 -72.10917 20550 ft 329 kts 227°
2026-05-04 19:46 41.10181 -72.12008 20233 ft 323 kts 237°
2026-05-04 19:47 41.09571 -72.13236 19923 ft 315 kts 246°
2026-05-04 19:47 41.09103 -72.14541 19605 ft 312 kts 251°
2026-05-04 19:47 41.08718 -72.15873 19307 ft 308 kts 254°
2026-05-04 19:47 41.08376 -72.17216 18999 ft 306 kts 255°
2026-05-04 19:48 41.08057 -72.18556 18706 ft 304 kts 256°
2026-05-04 19:48 41.07747 -72.19893 18406 ft 303 kts 256°
2026-05-04 19:48 41.07442 -72.21223 18085 ft 301 kts 256°
2026-05-04 19:48 41.07136 -72.22543 17749 ft 299 kts 256°
2026-05-04 19:49 41.06831 -72.23857 17411 ft 298 kts 256°
2026-05-04 19:49 41.06524 -72.25162 17082 ft 296 kts 256°
2026-05-04 19:49 41.06218 -72.26458 16751 ft 295 kts 255°
2026-05-04 19:49 41.05909 -72.27754 16426 ft 294 kts 255°
2026-05-04 19:50 41.05601 -72.29040 16105 ft 293 kts 255°
2026-05-04 19:50 41.05295 -72.30305 15792 ft 291 kts 255°
2026-05-04 19:50 41.04982 -72.31597 15473 ft 290 kts 255°
2026-05-04 19:50 41.04677 -72.32851 15166 ft 289 kts 255°
2026-05-04 19:51 41.04369 -72.34115 14864 ft 287 kts 254°
2026-05-04 19:51 41.04062 -72.35370 14552 ft 286 kts 254°
2026-05-04 19:51 41.03756 -72.36619 14250 ft 284 kts 254°
2026-05-04 19:51 41.03450 -72.37863 13932 ft 283 kts 254°
2026-05-04 19:52 41.03075 -72.39390 13572 ft 281 kts 254°
2026-05-04 19:52 41.00377 -72.50298 12031 ft 273 kts 254°
2026-05-04 19:52 40.98012 -72.59820 12028 ft 273 kts 254°
2026-05-04 19:52 40.95627 -72.69377 12031 ft 274 kts 254°
2026-05-04 19:53 40.93142 -72.78891 11985 ft 277 kts 243°
2026-05-04 19:53 40.88390 -72.84238 12007 ft 285 kts 220°
2026-05-04 19:53 40.87987 -72.84620 12007 ft 285 kts 220°
2026-05-04 19:53 40.87585 -72.85001 12008 ft 285 kts 220°
2026-05-04 19:54 40.87182 -72.85382 12007 ft 285 kts 220°
2026-05-04 19:54 40.86779 -72.85763 12009 ft 285 kts 220°
2026-05-04 19:54 40.86377 -72.86145 12009 ft 285 kts 220°
2026-05-04 19:54 40.85975 -72.86526 12011 ft 285 kts 220°
2026-05-04 19:55 40.85573 -72.86909 12009 ft 285 kts 220°
2026-05-04 19:55 40.85172 -72.87290 12010 ft 284 kts 220°
2026-05-04 19:55 40.84778 -72.87680 12012 ft 282 kts 223°
2026-05-04 19:55 40.84408 -72.88100 12009 ft 281 kts 228°
2026-05-04 19:56 40.84069 -72.88563 12011 ft 279 kts 233°
2026-05-04 19:56 40.83771 -72.89064 12002 ft 277 kts 238°
2026-05-04 19:56 40.83506 -72.89596 11902 ft 277 kts 243°
2026-05-04 19:56 40.83211 -72.90379 11691 ft 273 kts 251°
2026-05-04 19:57 40.82945 -72.92806 11063 ft 268 kts 275°
2026-05-04 19:57 40.83209 -72.95234 10455 ft 268 kts 279°
2026-05-04 19:57 40.83475 -72.97679 9864 ft 270 kts 276°
2026-05-04 19:57 40.83629 -73.00148 9181 ft 268 kts 273°
2026-05-04 19:58 40.83679 -73.02542 8527 ft 252 kts 271°
2026-05-04 19:58 40.83661 -73.04767 7897 ft 241 kts 269°
2026-05-04 19:58 40.83603 -73.06949 7274 ft 235 kts 269°
2026-05-04 19:58 40.83518 -73.09084 6654 ft 230 kts 268°
2026-05-04 19:59 40.83417 -73.11182 6025 ft 227 kts 267°
2026-05-04 19:59 40.83305 -73.13246 5369 ft 224 kts 265°
2026-05-04 19:59 40.82858 -73.25286 1577 ft 221 kts 262°
2026-05-04 19:59 40.82242 -73.31530 2776 ft 219 kts 261°
2026-05-04 20:00 40.81984 -73.34323 2983 ft 221 kts 261°
2026-05-04 20:00 40.81939 -73.34829 2976 ft 221 kts 262°
2026-05-04 20:00 40.81894 -73.35334 2976 ft 222 kts 262°
2026-05-04 20:00 40.81850 -73.35841 2978 ft 222 kts 262°
2026-05-04 20:01 40.81807 -73.36349 2980 ft 223 kts 262°
2026-05-04 20:01 40.81764 -73.36856 2988 ft 223 kts 262°
2026-05-04 20:01 40.81721 -73.37365 2970 ft 223 kts 262°
2026-05-04 20:01 40.81679 -73.37874 2977 ft 223 kts 262°
2026-05-04 20:02 40.81638 -73.38383 2986 ft 223 kts 262°
2026-05-04 20:02 40.81597 -73.38890 2986 ft 222 kts 262°
2026-05-04 20:02 40.81557 -73.39390 2987 ft 220 kts 262°
2026-05-04 20:02 40.81518 -73.39887 2976 ft 215 kts 262°
2026-05-04 20:03 40.81480 -73.40370 2976 ft 209 kts 262°
2026-05-04 20:03 40.81379 -73.41659 2966 ft 202 kts 263°
2026-05-04 20:03 40.81237 -73.43497 2982 ft 202 kts 262°
2026-05-04 20:03 40.81095 -73.45337 2986 ft 202 kts 262°
2026-05-04 20:04 40.80953 -73.47183 2980 ft 203 kts 262°
2026-05-04 20:04 40.80813 -73.49034 3002 ft 203 kts 262°
2026-05-04 20:04 40.80673 -73.50875 2982 ft 202 kts 262°
2026-05-04 20:04 40.80534 -73.52727 2971 ft 204 kts 262°
2026-05-04 20:05 40.80393 -73.54593 2973 ft 204 kts 263°
2026-05-04 20:05 40.80255 -73.56432 3009 ft 199 kts 263°
2026-05-04 20:05 40.80127 -73.58170 2940 ft 180 kts 261°
2026-05-04 20:05 40.80005 -73.59795 2973 ft 177 kts 261°
2026-05-04 20:06 40.79843 -73.61391 2950 ft 174 kts 255°
2026-05-04 20:06 40.79411 -73.62872 2972 ft 173 kts 239°
2026-05-04 20:06 40.78650 -73.64066 2968 ft 175 kts 221°
2026-05-04 20:06 40.77649 -73.64977 2953 ft 175 kts 216°
2026-05-04 20:07 40.76633 -73.65866 2768 ft 177 kts 217°
2026-05-04 20:07 40.75621 -73.66734 2518 ft 160 kts 214°
2026-05-04 20:07 40.74725 -73.67428 2341 ft 143 kts 213°
2026-05-04 20:07 40.73880 -73.68088 2142 ft 140 kts 214°
2026-05-04 20:08 40.73041 -73.68742 1981 ft 139 kts 214°
2026-05-04 20:08 40.72205 -73.69400 1761 ft 140 kts 213°
2026-05-04 20:08 40.71379 -73.70051 1592 ft 138 kts 212°
2026-05-04 20:08 40.70591 -73.70672 1422 ft 130 kts 213°
2026-05-04 20:09 40.69825 -73.71276 1220 ft 129 kts 212°
2026-05-04 20:09 40.69061 -73.71880 1107 ft 129 kts 213°
2026-05-04 20:09 40.68296 -73.72488 852 ft 129 kts 210°
2026-05-04 20:09 40.67518 -73.73101 748 ft 128 kts 210°
2026-05-04 20:10 40.66776 -73.73708 577 ft 126 kts 208°
2026-05-04 20:10 40.66042 -73.74297 456 ft 122 kts 204°
2026-05-04 20:10 40.65301 -73.74854 266 ft 122 kts 206°
2026-05-04 20:10 40.64603 -73.75423 98 ft 113 kts 204°
2026-05-04 20:11 40.64024 -73.75866 29 ft 79 kts 209°
2026-05-04 20:11 40.63684 -73.76143 30 ft 41 kts 211°
2026-05-04 20:11 40.63438 -73.76332 31 ft 40 kts 211°
2026-05-04 20:11 40.63258 -73.76586 28 ft 34 kts 248°
2026-05-04 20:12 40.63274 -73.76807 28 ft 23 kts 304°
2026-05-04 20:12 40.63367 -73.77002 27 ft 25 kts 300°
2026-05-04 20:12 40.63457 -73.77203 28 ft 26 kts 300°
2026-05-04 20:12 40.63549 -73.77401 29 ft 24 kts 301°
2026-05-04 20:13 40.63636 -73.77590 28 ft 20 kts 302°
2026-05-04 20:13 40.63673 -73.77680 28 ft 4 kts 266°
2026-05-04 20:13 40.63637 -73.77723 28 ft 11 kts 209°
2026-05-04 20:13 40.63536 -73.77806 28 ft 21 kts 212°
2026-05-04 20:14 40.63425 -73.77918 28 ft 19 kts 238°
2026-05-04 20:14 40.63422 -73.78082 28 ft 17 kts 294°
2026-05-04 20:14 40.63495 -73.78230 28 ft 23 kts 302°
2026-05-04 20:14 40.63578 -73.78411 29 ft 23 kts 301°
2026-05-04 20:15 40.63656 -73.78582 29 ft 21 kts 301°
2026-05-04 20:15 40.63731 -73.78751 29 ft 22 kts 300°
2026-05-04 20:15 40.63815 -73.78930 28 ft 23 kts 301°
2026-05-04 20:15 40.63898 -73.79118 28 ft 24 kts 301°
2026-05-04 20:16 40.63983 -73.79303 28 ft 24 kts 301°
2026-05-04 20:16 40.64075 -73.79473 28 ft 21 kts 325°
2026-05-04 20:16 40.64204 -73.79501 28 ft 19 kts
2026-05-04 20:16 40.64336 -73.79494 28 ft 19 kts
2026-05-04 20:17 40.64470 -73.79499 28 ft 20 kts 356°
2026-05-04 20:17 40.64613 -73.79537 27 ft 26 kts 336°
2026-05-04 20:17 40.64764 -73.79674 28 ft 26 kts 327°
2026-05-04 20:17 40.64928 -73.79701 27 ft 23 kts
2026-05-04 20:18 40.65045 -73.79663 27 ft 16 kts 39°
2026-05-04 20:18 40.65119 -73.79651 27 ft 13 kts 340°
2026-05-04 20:18 40.65243 -73.79737 28 ft 22 kts 330°
2026-05-04 20:18 40.65389 -73.79777 28 ft 22 kts
2026-05-04 20:19 40.65537 -73.79774 27 ft 22 kts
2026-05-04 20:19 40.65677 -73.79772 27 ft 16 kts
2026-05-04 20:19 40.65766 -73.79770 27 ft 6 kts
2026-05-04 20:19 40.65800 -73.79770 27 ft 6 kts
2026-05-04 20:20 40.65852 -73.79770 27 ft 9 kts
2026-05-04 20:20 40.65906 -73.79751 27 ft 6 kts 34°
2026-05-04 20:20 40.65921 -73.79715 27 ft 0 kts 78°
2026-05-04 20:21 40.65921 -73.79709 27 ft 2 kts 84°
2026-05-04 20:21 40.65925 -73.79653 27 ft 12 kts 89°
2026-05-04 20:21 40.65925 -73.79638 27 ft 0 kts 91°